COSMOS 970 DEB, 12942

Orbit data source: Space-Track

COSMOS 970 DEB, 12942 is space debris in LEO originally from a launch on Wed, 21 Dec 1977 UTC launched from the Tyuratam Missile And Space Complex (TTMTR). Debris objects in space refer to the collection of defunct objects orbiting the Earth. Examples of debris include non-operational satellites, rocket bodies, and fragments generated from explosions, collisions, or faulty payload assembly.

Loading next visibility...
Identifier
12942, 1977-121AZ
Orbit
LEO
Country
Flag of CISCIS
Related business
Manufacturer
Unknown
Mission
Spacecraft
Bus & Motor
Unknown
Mass
Unknown
Launch date (UTC)
1977-12-21 (48 years ago)
Launch vehicle
Unknown
Launch site
Tyuratam Missile And Space Complex (TTMTR)
Object type
Payload
Rocket body
Debris
Shape & HBR
Unknown shape, 0.1 m
Radar Cross Section
Medium (>0.1 m² and <1 m²)

Expand to show TLE details & history
Last TLE update: 13 hours ago

TLE from 13 hours ago
0 COSMOS 970 DEB
1 12942U 77121AZ  26171.35257390  .00000090  00000-0  29874-3 0  9999
2 12942  65.8282 151.8942 0110330 209.0897 300.0795 13.37871042194053
Epoch: 2026-06-20T08:27Z
TLE epoch observation values (Epoch: 2026-06-20T08:27:42.384Z)
Latitude
28.91292°
Longitude
-77.87859°
Altitude
1,079.098 km
Speed
7.335 km/s
True Right ascension
21h 10m 27s
True Declination
28° 46' 26"
Sunlit
Object was in daylight at epoch
Visualization orbit readout
Latitude
Unknown
Longitude
Unknown
Altitude
Unknown
Speed
Unknown
Apparent Right ascension
Unknown
Apparent Declination
Unknown
Sunlit
N/A
Visualization observer readout
Local Sidereal Time
08:33:49
Azimuth
Unknown
Elevation
Unknown
Doppler factor
Unknown
Orbital elements
Apogee altitude
1,198.445 km
Perigee altitude
1,033.084 km
Semi-major axis
7,493.902 km
Eccentricity
0.01103
Inclination
65.8282°
RAAN
151.8942°
Arg. of periapsis
209.0897°
True anomaly
298.97793°
Mean anomaly
300.0795°
Eccentric anomaly
299.52947°
Mean motion
3.34566 °/min
Orbital period
107.6 mins
BSTAR
0.00029874
Loading maneuver chart data...
Computing Atmospheric mass density...
Loading historical data...
Loading historical data...
Loading historical data...
Loading historical data...
Loading historical data...
Loading historical data...
Loading historical data...

Documentation

Showing up to 5 results
|